Location: Gad�tanya
(48.0500°N, 20.8500°E)
Time: 11:46:41
(UTC+00:00)

Cosmos 1538 Rocket - Pass Details

Date: 05 July 2020
Orbit: 753 x 791 km, 74.0° (Epoch: 14 August)

Event Time Altitude Azimuth Distance (km) Brightness Sun altitude
Exits shadow 20:35:07 - 201° (SSW) 2,736 6.5 -13.8°
Reaches altitude 10° 20:36:08 10° 201° (SSW) 2,346 6.2 -13.9°
Maximum altitude 20:41:29 89° 284° (WNW) 792 4.0 -14.3°
Drops below altitude 10° 20:46:50 10° 23° (NNE) 2,344 7.1 -14.8°
Sets 20:49:13 0° 23° (NNE) 3,270 7.9 -14.9°
